Theta_e
314 313 313 312 312 312 312 313 313 314 314 314 315 315 316 316 317 318 319 319 320 322 323 325 327 327 328 330 331 331 331 330 328 326 327 328 328 327 324 324 326 328 328 328 328 328 327 327 327 326 326 325 324 325 325 326 325 324 323 323 322 322 321
313 312 312 312 312 311 312 312 312 313 313 314 314 314 315 316 316 317 317 318 319 320 321 322 325 326 328 328 329 330 330 330 329 327 326 328 328 327 327 326 327 328 327 327 327 328 327 326 326 326 326 326 325 326 326 326 326 325 325 325 323 322 322
312 312 312 312 311 311 311 311 311 312 313 313 313 313 314 314 315 316 316 317 318 319 319 321 322 324 326 327 327 328 329 330 329 328 326 326 327 328 328 327 328 328 328 328 328 327 327 326 325 326 327 327 327 327 326 326 327 326 326 326 325 324 324
312 312 312 312 311 310 310 310 310 311 312 312 312 312 313 313 314 315 316 316 317 317 318 319 321 322 324 326 327 327 328 329 328 328 327 326 326 327 327 327 327 328 328 328 329 328 327 328 326 326 326 326 327 328 327 326 327 326 326 327 326 325 326
311 311 311 311 311 310 310 309 310 310 310 311 312 311 312 312 312 313 314 315 316 316 317 318 319 321 323 325 327 327 328 329 329 328 327 326 325 325 326 326 326 327 327 327 329 329 328 328 328 327 326 325 326 326 326 326 326 326 326 326 326 325 326
310 310 310 310 310 310 309 309 309 309 309 310 310 311 311 311 311 312 313 314 315 316 316 317 318 319 321 323 324 326 328 328 329 328 328 327 326 325 324 325 326 326 326 327 328 329 329 329 328 327 326 325 325 324 324 326 326 326 326 326 326 325 326
309 309 309 309 309 309 309 308 308 308 308 308 309 309 309 310 310 311 311 312 313 314 315 316 317 318 319 321 322 324 326 327 328 328 328 328 327 325 324 324 325 325 326 327 328 328 328 329 328 327 328 325 325 325 324 326 325 325 326 326 326 326 327
309 308 308 308 308 309 308 308 308 307 307 307 307 307 307 308 308 309 310 310 311 312 313 314 316 317 318 319 320 322 324 326 326 327 328 328 328 327 325 324 325 326 326 327 328 328 328 329 328 328 328 326 325 325 325 325 325 325 325 326 326 327 327
308 308 307 307 307 307 307 307 307 307 307 307 307 307 306 306 307 307 308 309 310 311 312 313 315 316 317 318 319 320 321 324 325 326 328 327 327 328 327 325 325 326 327 326 327 329 329 329 329 328 328 327 326 325 324 325 325 324 324 324 325 326 326
307 307 307 307 307 306 306 306 307 307 307 307 307 306 306 306 306 306 307 308 308 310 311 312 313 314 316 317 318 319 320 322 323 325 327 328 328 328 328 327 326 326 326 326 327 327 328 329 329 329 327 327 327 325 324 325 324 325 325 324 324 323 323
307 307 307 306 306 306 306 306 306 307 307 307 306 306 305 305 305 306 306 306 307 307 308 310 311 313 315 316 317 319 319 320 321 323 326 327 327 328 329 328 328 327 326 326 326 327 328 328 329 329 328 327 326 326 325 325 324 326 325 325 325 323 321
307 307 306 306 306 306 306 306 306 306 306 306 306 305 305 305 305 305 305 305 306 306 307 308 310 311 313 315 316 318 319 319 320 321 323 325 326 327 328 328 328 328 328 327 327 327 327 328 328 328 329 328 326 326 327 325 325 325 325 326 325 322 321
307 307 306 306 306 305 305 305 305 305 305 304 304 304 304 304 304 304 304 304 305 305 306 307 308 310 311 313 315 317 318 319 319 319 320 323 325 326 327 328 329 329 328 329 328 327 327 328 328 329 329 328 327 326 326 325 325 325 326 327 325 323 321
307 307 306 306 305 305 304 304 304 304 304 304 303 304 304 303 303 303 304 304 304 304 305 305 307 308 310 312 314 315 317 318 319 319 319 320 322 324 325 327 328 328 328 329 329 328 328 328 328 329 329 329 327 326 326 326 326 325 327 327 325 323 320
307 306 306 306 305 304 304 304 304 303 303 303 302 302 303 303 302 302 303 303 303 304 304 305 305 306 308 309 311 313 316 317 318 319 319 319 319 321 323 326 326 326 327 328 330 330 329 328 328 329 328 328 328 327 326 326 325 326 328 328 325 321 319
306 306 306 305 305 304 304 304 304 303 303 302 302 302 302 302 302 302 302 302 303 303 303 304 304 305 306 307 308 310 313 315 317 318 319 319 320 320 321 323 326 326 327 328 330 330 330 329 329 328 328 329 329 328 327 326 324 325 329 327 324 320 318
306 306 305 305 305 304 304 304 304 303 303 303 302 302 302 301 301 301 301 302 302 302 302 303 303 304 305 305 306 308 310 312 315 316 318 319 320 320 320 321 324 325 326 328 329 329 329 331 330 329 329 328 328 328 327 326 325 324 328 327 323 320 317
306 305 305 305 304 304 304 304 303 303 303 303 302 302 302 301 301 301 301 301 301 301 301 302 302 303 303 304 305 306 308 310 312 314 316 317 319 320 320 321 322 323 325 328 329 328 329 330 329 329 329 328 328 329 328 327 326 325 327 327 323 319 317
305 304 304 304 304 303 303 303 303 303 304 303 303 302 302 301 301 301 300 300 300 300 300 301 301 301 302 303 303 305 306 308 310 312 315 316 317 319 320 321 321 322 323 326 328 328 328 328 329 329 330 329 328 328 329 328 327 326 327 326 322 318 317
304 304 303 303 303 303 303 303 303 303 303 303 303 302 301 301 301 300 300 300 300 300 300 300 300 300 301 302 303 304 305 306 309 311 313 315 317 318 319 320 321 321 322 325 327 328 327 327 329 330 331 329 327 329 330 329 327 326 326 325 321 319 317
303 303 302 302 303 303 303 303 303 302 302 302 302 301 301 300 300 300 300 300 299 299 299 299 300 300 300 301 302 303 304 305 307 309 312 314 316 317 318 319 320 321 321 323 327 328 327 328 330 331 331 329 328 330 331 330 329 327 326 324 322 320 317
303 302 302 302 302 302 302 302 302 302 302 301 301 301 300 300 300 299 299 299 299 299 299 299 300 300 300 301 302 303 303 304 306 308 311 314 316 317 318 319 320 321 321 322 325 327 327 328 329 331 331 329 329 330 331 330 329 328 326 324 322 320 317
303 302 303 302 302 302 302 301 301 301 301 301 301 301 300 300 300 299 299 299 299 299 299 299 299 299 299 300 301 302 304 305 305 307 310 313 315 316 318 319 319 320 321 321 322 325 327 327 328 330 331 329 328 329 330 330 329 328 326 324 321 319 317
303 303 302 302 302 301 301 301 301 301 301 301 301 300 300 300 300 299 299 298 298 298 298 298 299 299 299 299 300 301 302 304 305 307 309 312 314 316 317 319 319 320 321 320 320 322 326 327 328 328 328 328 328 329 330 330 329 328 327 325 321 319 318
303 302 302 302 301 301 301 301 301 301 301 300 300 300 300 299 299 299 299 298 298 298 298 298 298 298 298 298 299 299 300 302 304 306 309 311 314 316 317 318 319 320 321 321 321 321 325 328 328 328 328 328 328 328 329 330 329 328 327 325 322 320 320
302 302 302 301 301 300 300 300 300 300 300 299 299 299 299 298 298 298 298 298 298 298 298 298 298 298 298 298 298 298 299 300 302 305 307 310 313 316 317 318 319 320 321 321 321 321 324 327 329 329 328 327 327 327 328 329 328 327 326 324 322 320 320
302 301 301 300 300 300 300 299 299 299 299 298 298 298 297 297 297 297 297 297 297 297 298 298 298 298 298 298 298 298 298 299 300 302 305 308 311 315 317 318 318 320 321 321 321 321 323 326 327 329 327 326 327 326 327 328 328 327 326 325 323 322 321
301 301 300 300 299 299 299 298 298 298 297 297 297 296 296 296 296 296 296 296 297 297 297 297 297 297 297 298 298 298 298 299 300 301 304 306 309 312 315 318 318 319 321 321 321 322 323 324 325 326 325 324 325 326 326 326 327 326 325 324 324 323 321
301 300 300 299 299 299 299 298 298 297 297 296 296 296 295 295 295 295 296 296 296 296 297 297 297 297 297 298 298 298 298 298 300 301 303 306 307 309 313 317 319 319 321 321 321 322 322 323 324 324 322 320 321 323 323 323 324 324 322 321 322 322 321
300 300 299 299 299 299 298 298 297 297 296 296 296 295 295 295 295 295 295 296 296 296 297 297 297 297 297 297 298 298 298 299 300 301 303 305 307 308 311 315 318 319 320 321 321 321 322 323 323 323 321 318 317 318 318 317 318 319 319 319 320 320 320
300 300 299 299 299 298 298 298 297 297 296 296 296 295 295 295 295 295 295 295 295 296 296 297 297 297 297 297 298 298 299 300 300 302 303 304 306 308 310 313 317 319 320 321 321 321 323 323 322 322 319 316 315 314 312 311 313 313 314 315 316 315 315
300 300 299 299 298 298 298 297 297 296 296 296 295 295 295 294 294 294 294 295 295 295 296 296 297 297 297 298 298 298 299 300 301 302 304 305 307 308 310 312 315 318 319 320 320 321 322 322 321 321 319 315 313 311 309 309 310 310 310 311 311 310 309
300 299 299 298 298 298 297 297 296 296 296 295 295 294 294 294 294 294 294 295 295 295 296 297 298 298 298 298 298 298 299 301 302 303 305 306 308 309 311 313 316 318 318 319 320 321 321 321 320 320 318 316 313 311 308 307 307 308 309 308 307 305 304
300 299 298 298 298 297 297 296 296 296 295 294 294 294 293 293 293 294 294 295 295 295 295 296 298 299 299 298 298 298 299 301 303 304 305 307 309 310 312 314 317 318 318 319 320 320 320 320 320 319 318 317 316 314 309 305 304 306 306 304 302 301 299
299 298 298 298 297 297 296 296 295 295 294 294 293 293 292 293 293 293 294 294 294 295 295 296 296 298 299 300 300 299 299 301 304 306 307 309 310 311 313 315 316 317 318 319 319 320 320 319 318 317 316 316 316 313 308 305 304 303 302 301 298 297 297
298 298 297 297 297 297 296 295 294 294 294 293 293 292 292 292 293 293 294 294 294 294 294 295 295 296 298 300 301 302 301 302 304 307 308 310 312 312 313 314 314 316 318 319 318 318 318 318 316 315 315 315 314 310 306 303 302 301 299 298 296 295 295
297 297 297 297 296 296 295 295 294 294 293 293 292 292 292 292 292 293 293 294 294 294 294 295 295 296 298 300 302 304 304 305 306 307 308 311 312 313 313 313 313 315 316 317 317 316 315 315 314 313 313 312 310 307 305 302 300 299 297 296 295 294 293
Wind_Speed
3 3 4 4 6 7 8 9 9 9 9 8 8 8 8 9 9 10 10 11 12 12 11 13 15 17 20 19 21 28 31 31 31 30 26 21 18 20 22 21 20 18 15 12 10 9 7 6 10 14 18 19 20 20 19 16 16 15 14 14 14 15 16
2 2 2 3 4 6 7 9 10 10 9 9 8 8 8 8 9 10 10 11 12 13 13 13 14 15 18 21 22 25 28 30 31 33 31 26 22 21 21 20 20 20 19 18 15 14 11 9 8 8 13 16 17 19 19 17 17 16 15 14 14 14 15
2 2 2 2 3 4 7 8 9 9 9 9 9 9 9 9 9 9 10 11 12 13 14 14 15 15 16 19 24 26 28 30 30 31 32 31 29 26 22 19 17 18 19 18 18 18 15 14 12 8 11 14 13 16 19 19 19 17 16 15 14 14 14
1 2 2 2 3 4 6 7 8 9 9 9 10 9 9 9 9 9 9 10 11 12 14 15 16 16 16 18 21 25 28 30 31 31 32 35 33 29 26 23 20 20 20 19 18 19 17 15 12 8 11 14 14 15 17 19 20 18 17 16 15 15 15
1 1 2 2 3 3 5 5 6 8 8 9 9 9 10 9 10 10 10 10 11 12 14 15 16 16 16 17 19 22 25 29 32 33 33 34 35 32 31 30 28 26 25 24 21 19 19 17 14 10 12 14 12 13 16 18 19 19 18 17 16 16 16
1 2 2 3 3 4 4 5 6 7 8 8 9 9 10 10 10 11 11 11 11 12 13 14 17 18 17 17 18 21 24 26 29 34 36 37 36 36 36 34 32 30 30 29 24 21 20 19 17 13 14 15 12 10 14 16 17 18 18 18 17 17 16
2 3 3 3 4 4 5 6 6 7 8 8 9 10 10 11 11 12 13 13 13 14 14 15 16 18 19 19 19 20 23 24 26 30 34 36 37 39 40 38 34 33 35 32 26 25 24 22 20 17 14 14 13 12 12 15 16 16 17 17 16 16 16
3 4 4 4 4 5 5 6 7 8 9 9 9 10 11 12 12 13 14 15 15 15 16 16 17 17 19 20 20 21 21 22 24 27 30 34 35 38 42 42 39 37 38 36 30 28 28 25 22 20 16 12 10 11 11 13 16 17 17 16 14 15 14
4 4 5 5 5 6 7 7 8 9 9 10 10 10 11 12 13 13 14 15 16 16 16 16 17 17 18 19 21 22 22 21 21 24 28 31 32 34 39 43 43 40 39 39 35 30 29 27 23 22 21 16 12 9 9 11 12 15 19 18 16 17 16
5 6 6 6 7 7 8 8 9 9 10 10 11 11 12 13 14 14 15 16 16 17 17 17 17 18 19 20 21 23 24 23 22 22 24 27 30 31 33 37 41 42 41 40 39 35 31 29 26 26 25 22 18 12 8 10 10 13 18 20 19 19 20
6 6 7 7 7 8 8 9 9 10 10 11 11 12 13 14 15 16 16 17 17 17 18 19 19 19 19 20 21 23 24 24 24 23 22 25 30 30 31 34 36 39 41 42 42 39 36 33 31 32 28 25 24 18 12 10 10 14 18 20 19 19 22
6 7 7 7 8 9 9 10 10 11 12 12 13 14 15 16 16 17 17 17 17 17 18 19 19 20 20 20 20 21 23 25 26 26 23 23 27 29 32 35 35 36 40 42 42 41 40 37 35 35 34 29 26 24 19 13 9 14 19 20 19 19 23
6 7 7 8 9 9 10 11 12 13 14 15 15 16 17 17 18 18 18 19 19 18 19 19 19 20 21 21 21 21 22 24 26 28 27 26 26 27 30 32 34 36 37 39 41 41 42 39 35 35 35 31 27 26 24 18 11 12 18 21 20 18 22
7 8 8 9 10 11 12 14 15 16 16 17 17 18 18 19 19 19 19 20 21 20 20 20 20 20 21 22 22 23 23 24 26 28 29 30 28 27 28 30 33 36 37 37 38 41 43 42 38 35 32 31 29 27 26 21 16 13 14 19 19 18 21
7 8 9 10 11 12 14 16 17 18 19 20 19 20 20 21 21 21 21 21 21 21 21 22 22 22 22 23 23 23 24 25 26 27 29 32 32 29 28 29 32 34 35 35 34 36 39 42 40 37 34 32 30 28 27 25 22 17 12 14 16 18 20
8 9 10 11 13 14 16 18 19 20 21 22 22 23 23 22 22 23 23 23 22 23 23 23 23 23 24 24 24 25 25 25 26 26 28 30 32 33 31 30 31 32 32 33 34 34 35 38 39 38 36 35 32 28 27 26 27 21 15 18 18 18 20
8 10 11 12 15 17 18 19 20 21 21 22 23 25 25 25 25 25 25 24 24 24 25 24 25 25 25 26 26 26 26 27 27 27 28 29 31 34 34 32 31 31 32 32 33 35 34 35 39 38 37 37 35 30 28 28 28 23 18 21 20 19 21
9 10 12 14 17 19 19 20 21 22 22 23 24 25 26 26 27 26 26 26 26 26 26 26 27 27 27 26 26 27 28 28 29 28 29 30 30 32 35 34 32 31 32 31 33 37 36 36 39 39 38 38 34 29 28 28 28 24 20 21 20 19 20
9 11 14 16 18 19 20 21 22 22 23 24 25 27 28 28 27 26 26 27 27 27 27 28 28 28 28 27 27 27 28 29 30 30 30 31 31 32 33 34 34 33 33 32 34 38 39 38 39 38 38 38 33 28 26 27 28 28 24 22 21 21 21
10 12 14 16 18 19 20 21 22 23 24 25 27 30 31 30 29 28 28 28 28 29 29 29 30 29 29 28 28 28 28 29 30 31 32 32 32 32 33 34 35 34 34 34 35 37 40 40 37 37 38 39 37 29 23 25 30 29 25 22 21 22 22
10 13 14 16 17 19 20 22 23 24 25 26 28 30 30 29 28 29 29 29 29 29 30 30 30 30 29 28 29 29 29 29 30 31 32 33 33 33 33 34 36 35 35 35 35 36 40 40 35 34 37 39 40 33 24 24 27 26 24 22 20 21 21
11 13 15 16 17 19 21 22 23 24 25 26 28 29 29 29 29 29 30 30 31 30 31 32 31 30 29 28 27 28 29 29 30 30 31 33 34 34 33 33 35 36 36 36 35 35 39 41 37 34 35 38 39 34 27 26 26 23 23 22 19 20 21
12 13 13 15 18 20 22 23 24 25 26 26 27 27 29 30 30 30 31 31 31 31 32 32 32 32 32 30 28 27 27 28 29 30 31 32 33 34 35 34 33 36 38 39 38 37 38 41 41 38 38 40 40 35 29 28 26 23 24 22 20 21 20
12 12 13 16 18 20 22 23 24 25 26 26 26 28 29 30 30 30 31 31 31 32 33 33 33 34 35 35 33 30 28 28 28 30 31 32 33 33 34 34 33 34 37 40 40 39 38 40 43 44 44 43 42 38 32 29 26 25 25 22 21 22 21
11 13 14 16 18 20 22 23 24 25 25 26 27 29 30 29 29 29 30 31 32 33 34 34 34 35 36 36 36 35 32 31 30 30 31 32 33 32 32 33 33 33 34 38 39 39 38 40 44 47 47 47 46 42 36 31 28 27 26 23 21 22 22
12 13 14 16 18 20 22 23 24 24 25 26 27 28 29 29 30 30 30 31 33 34 34 35 36 36 37 37 38 38 36 34 33 33 32 31 31 32 32 32 32 32 33 35 37 37 37 40 45 47 46 48 50 46 40 35 32 30 28 25 24 25 25
13 13 14 16 19 21 22 23 24 24 25 26 26 28 29 29 29 29 30 31 33 33 34 34 35 37 38 38 39 40 39 36 36 36 35 34 32 32 33 32 31 32 32 34 35 37 37 38 42 45 44 45 49 49 44 38 34 32 30 28 29 31 32
12 13 15 17 20 21 23 25 25 26 27 27 27 27 28 28 28 29 30 31 33 34 33 33 34 36 38 38 38 40 40 38 38 38 37 36 35 33 32 33 33 32 32 33 34 36 37 34 35 40 40 39 43 45 42 37 35 33 31 31 33 35 34
13 14 17 19 21 22 25 26 28 29 29 28 27 26 27 27 28 30 30 31 33 35 35 34 35 36 37 37 38 40 40 38 38 39 38 37 36 35 34 34 34 33 33 33 34 36 38 34 31 33 31 27 32 36 35 33 33 32 31 30 31 32 32
14 16 18 20 22 23 25 27 29 30 29 28 27 27 28 29 29 30 31 32 34 35 36 35 36 37 38 38 39 39 37 36 36 38 38 37 35 35 36 36 34 33 33 34 34 35 37 35 30 28 27 24 27 29 27 26 28 29 28 28 29 29 29
15 16 18 20 22 23 26 28 30 29 28 29 29 29 30 30 30 31 31 33 33 35 36 35 36 38 39 39 40 39 35 33 35 35 36 37 35 35 36 38 37 35 34 35 35 34 37 37 30 27 30 31 31 29 26 24 25 25 25 25 24 23 23
14 16 19 21 22 23 26 30 30 29 28 29 29 29 29 30 31 31 31 32 33 33 35 35 37 39 41 41 41 40 35 32 33 34 34 34 34 33 34 37 39 38 35 33 32 34 37 37 31 29 34 36 33 31 30 28 28 28 27 25 24 22 20
14 16 19 21 22 23 26 29 30 29 28 29 29 29 29 30 31 30 30 30 31 31 32 33 35 38 41 41 41 40 36 32 32 33 32 31 31 31 33 34 36 38 38 33 29 32 37 37 32 32 37 38 36 34 33 30 29 31 30 29 27 25 24
14 16 18 20 22 23 26 28 28 28 29 29 29 30 31 30 29 28 28 29 30 29 29 30 31 32 35 39 40 41 40 36 33 32 31 30 29 29 31 32 31 33 37 35 29 31 35 36 33 35 39 41 39 38 36 33 31 33 33 32 31 28 29
14 15 17 20 21 22 24 25 26 28 29 29 29 30 30 28 26 26 27 28 28 26 27 28 27 28 31 34 37 40 41 39 35 32 29 29 29 28 29 30 27 27 33 34 29 29 32 34 34 34 38 40 39 38 38 37 36 36 36 36 35 33 32
13 15 17 19 20 22 24 24 25 27 28 28 29 30 29 27 25 25 26 27 26 25 25 25 25 25 28 32 35 39 41 40 38 35 30 27 28 27 27 26 24 24 29 30 27 27 31 34 34 34 37 39 38 38 38 38 38 37 37 37 36 34 32
13 15 17 18 19 21 22 23 24 26 27 27 27 29 29 28 25 23 24 26 26 24 23 22 23 23 24 27 32 36 39 40 40 38 32 27 25 26 25 24 23 24 26 26 26 27 31 34 35 35 36 38 38 38 39 38 37 36 36 33 31 30 30
Wind_Direction
9 357 349 334 330 323 317 318 315 313 311 306 302 297 294 289 286 283 277 272 265 261 256 248 244 240 239 238 227 219 216 214 210 207 216 220 212 220 231 234 238 244 249 250 244 241 242 229 218 224 231 230 225 226 225 222 218 214 210 209 211 208 207
359 354 349 331 328 323 316 314 312 310 307 304 301 299 300 295 289 284 280 276 268 264 262 256 252 247 244 242 235 228 222 217 214 210 212 217 212 215 225 229 233 239 245 247 245 245 250 249 236 221 218 219 221 222 220 219 218 214 211 212 214 208 201
345 339 343 336 325 320 315 312 311 309 307 304 300 297 298 298 294 287 280 276 271 267 265 262 257 253 253 248 240 236 231 225 221 216 214 217 217 216 219 222 227 233 239 241 238 240 245 246 250 237 205 202 210 215 213 214 214 212 211 210 211 209 198
334 322 322 325 315 312 309 307 308 306 304 302 299 296 295 296 295 289 281 276 272 267 264 264 261 257 257 254 246 241 238 233 229 223 218 218 219 218 219 221 223 229 237 241 236 236 238 240 245 243 220 210 210 212 207 208 212 211 211 208 207 208 198
279 290 296 298 298 298 293 296 302 300 299 299 296 295 292 291 293 289 283 278 274 268 263 262 262 261 260 258 253 245 238 235 233 227 220 219 218 217 219 222 223 227 236 242 241 237 237 240 239 237 233 220 214 213 200 197 208 210 208 208 204 202 197
229 256 271 277 276 280 280 284 290 291 292 293 292 290 286 285 286 283 281 280 276 272 268 263 261 261 262 260 257 250 241 235 233 228 223 221 218 215 217 222 224 225 230 237 242 239 236 237 235 235 235 225 219 214 195 190 203 208 206 207 202 198 197
220 242 254 263 266 270 273 276 281 281 280 281 283 282 281 280 277 275 276 275 274 274 272 267 263 260 261 259 257 255 249 242 236 231 226 223 221 218 217 219 223 226 228 230 235 238 236 233 231 231 234 230 221 218 206 193 200 205 199 199 200 198 192
213 231 244 253 259 266 269 272 274 274 273 273 274 276 276 276 274 272 273 272 272 273 271 267 263 261 259 257 254 253 253 249 242 236 230 225 221 220 221 221 221 225 227 227 228 234 235 232 231 228 229 233 221 218 221 206 202 205 195 189 196 195 184
217 228 237 244 252 262 267 269 271 270 271 271 271 272 273 272 271 271 271 270 270 270 268 266 264 262 259 255 253 251 250 250 246 240 235 229 222 220 221 221 221 223 226 226 226 229 232 233 236 232 225 227 228 220 223 219 210 208 199 193 196 196 188
220 230 235 242 251 262 264 266 270 270 270 271 271 272 273 270 269 269 269 269 268 267 266 265 264 263 260 255 252 249 247 246 247 245 240 234 229 224 221 220 221 223 225 226 227 227 229 230 235 237 229 224 229 229 224 222 218 215 205 193 194 202 199
223 232 238 244 251 258 262 266 270 272 272 273 273 275 276 274 270 269 269 268 267 266 264 263 263 264 261 257 254 251 247 244 244 245 243 239 233 227 223 222 221 222 222 224 226 225 226 227 230 237 237 227 223 227 232 230 219 217 205 188 189 197 195
225 234 237 242 250 257 263 268 272 275 278 279 278 277 276 275 273 271 269 268 267 265 263 261 261 263 262 258 256 253 248 244 242 242 242 242 237 230 226 225 221 219 220 222 223 222 224 227 228 234 240 235 223 220 228 235 229 214 200 191 194 186 178
229 237 241 245 252 258 265 272 276 279 281 280 279 278 276 273 272 272 270 269 267 264 263 261 258 258 259 257 254 253 250 247 243 241 239 241 242 236 231 228 225 221 220 219 220 220 222 225 226 228 235 239 230 221 222 228 237 221 198 195 197 178 168
239 244 249 251 256 263 272 277 277 278 278 277 277 277 276 274 272 271 269 269 267 265 262 260 258 256 256 256 254 252 252 249 247 245 240 239 241 241 237 234 232 228 223 219 218 219 220 222 224 225 230 239 237 226 220 219 229 229 200 196 195 169 164
249 251 254 257 262 270 276 277 277 277 276 276 277 276 276 275 273 270 269 268 266 265 262 259 258 256 254 256 256 253 250 248 248 248 245 241 239 240 240 238 237 234 230 225 220 217 217 218 221 224 228 238 239 229 221 217 222 222 188 180 183 161 162
257 259 260 263 269 276 279 278 278 278 276 277 277 276 275 275 273 271 269 267 265 263 262 259 257 256 254 253 254 255 253 249 247 246 246 245 241 239 239 240 239 236 233 232 226 219 215 215 218 221 224 232 236 230 224 220 222 218 182 169 177 165 165
263 266 266 271 279 282 281 280 280 279 277 277 276 274 273 273 273 272 269 267 265 263 261 259 257 255 253 252 251 252 254 252 249 246 244 245 245 242 239 239 240 237 232 231 229 224 217 211 213 216 219 227 231 225 220 219 222 219 191 180 185 173 166
269 272 276 280 284 285 284 283 283 281 278 276 274 274 273 272 272 271 268 267 265 263 262 259 258 256 253 252 251 251 252 251 250 248 245 244 246 245 241 239 240 240 235 230 228 227 222 213 211 213 217 223 226 221 214 213 217 215 193 181 181 170 163
276 281 285 287 286 286 286 285 284 283 281 278 276 275 274 273 271 268 267 267 264 263 262 260 258 257 253 252 251 250 249 249 248 247 247 244 243 243 243 240 239 239 237 234 229 227 226 221 215 212 213 217 221 223 216 209 213 213 196 178 168 160 159
281 286 288 288 288 288 287 287 287 285 284 281 279 277 275 273 270 269 268 267 265 263 262 260 258 256 253 250 249 248 247 247 246 245 245 243 241 241 242 242 239 238 238 236 232 227 226 226 219 212 211 213 216 222 218 210 213 212 196 177 166 161 160
286 289 289 289 290 291 290 289 288 287 285 283 281 279 277 274 271 270 269 266 265 263 261 260 257 255 252 249 247 246 245 245 245 244 243 241 238 238 240 241 239 238 237 237 235 229 225 224 221 215 211 209 212 218 215 212 217 212 195 179 170 164 160
289 290 291 292 293 293 292 291 289 288 286 284 283 281 278 276 273 271 270 267 266 263 261 259 255 252 250 247 246 245 244 243 244 244 243 241 238 237 238 239 238 237 237 236 236 233 227 223 220 216 210 204 209 216 213 212 217 208 191 181 168 162 162
290 292 293 294 295 296 294 293 292 291 289 286 284 282 280 278 275 272 270 269 266 263 260 257 254 251 248 246 245 245 244 243 242 242 243 241 238 235 235 237 237 236 236 237 237 236 232 227 223 220 213 207 209 214 210 207 207 198 189 182 167 163 166
292 294 295 295 297 299 298 297 296 294 292 290 287 285 283 280 277 273 271 269 265 262 259 257 255 253 250 247 245 244 244 244 242 241 241 240 238 235 233 235 235 235 235 235 236 236 233 230 227 224 221 213 210 211 207 201 199 197 197 190 171 167 171
295 295 296 298 302 303 302 302 301 297 295 293 291 289 286 282 279 276 273 269 266 263 261 259 257 255 252 250 246 243 243 244 244 242 241 240 238 235 233 232 233 233 232 232 234 234 231 228 225 223 221 216 212 211 210 206 199 194 193 187 174 174 181
297 298 300 303 307 308 308 307 305 302 298 296 293 290 286 282 280 278 274 271 267 264 262 261 259 257 254 252 248 243 241 241 242 243 242 243 241 236 232 232 231 230 229 229 230 230 228 225 223 221 220 216 213 212 214 213 208 200 192 184 177 179 184
301 301 302 305 309 312 313 312 308 304 300 297 293 289 286 282 279 276 273 271 269 266 264 261 260 258 255 252 249 244 240 239 241 241 241 243 245 240 233 231 231 230 228 226 226 225 225 223 221 220 219 213 209 209 210 210 211 211 208 202 197 196 196
303 302 303 306 310 314 316 316 313 308 302 297 292 288 285 280 277 274 272 271 269 268 265 262 259 258 256 253 250 245 240 238 239 240 239 240 243 244 240 233 231 231 229 225 223 222 221 219 214 213 213 209 205 206 208 208 211 215 215 213 211 208 204
303 303 305 308 310 315 318 319 317 311 303 296 291 288 285 280 277 275 273 272 271 270 267 264 260 257 255 252 249 243 238 236 237 238 237 237 239 242 242 237 232 231 231 227 223 221 220 218 209 204 202 197 194 196 200 203 207 210 210 211 212 209 205
303 303 307 310 313 317 319 318 316 311 305 300 296 293 290 286 282 279 276 274 273 272 270 266 261 257 253 249 245 240 235 234 235 236 235 235 236 237 238 237 233 231 231 229 225 221 217 213 204 192 184 179 179 183 186 190 195 199 202 206 207 205 206
304 305 308 314 317 318 318 318 317 314 308 304 301 298 295 291 286 281 278 276 274 272 270 267 262 257 251 246 241 236 233 233 234 234 234 234 234 234 235 236 236 232 231 230 226 219 212 206 197 185 180 176 172 173 176 177 180 183 186 191 193 194 197
305 307 310 316 319 318 318 319 319 316 312 308 305 301 298 295 290 285 281 278 276 273 271 269 265 258 250 244 239 234 232 233 232 232 232 231 230 231 232 234 236 232 231 232 225 215 210 204 194 189 186 178 170 171 174 175 174 173 173 175 177 177 176
309 311 313 317 319 318 318 319 319 318 316 312 307 303 301 298 294 290 285 283 280 276 274 273 269 260 250 244 239 233 231 231 229 229 230 228 227 228 227 229 230 226 227 232 224 211 208 203 196 193 191 183 178 176 174 171 170 169 166 166 165 162 159
314 314 315 318 319 318 317 319 320 320 317 314 310 308 307 304 298 293 290 288 286 282 277 275 273 263 251 244 240 234 232 232 229 225 226 225 225 226 224 225 226 221 219 222 216 206 205 204 199 197 195 193 190 184 175 167 166 164 160 156 151 148 146
318 318 319 321 321 318 317 319 321 321 318 316 315 315 314 309 302 298 296 294 292 289 284 279 274 266 255 248 242 236 232 231 227 221 221 224 224 223 224 225 223 213 207 206 204 204 206 205 200 196 196 196 193 185 175 166 162 158 153 148 143 140 141
321 321 323 324 322 319 318 320 322 323 322 321 322 322 320 315 308 304 303 301 299 296 291 285 280 273 262 253 246 239 233 229 224 219 221 226 223 220 219 217 210 202 199 200 202 205 205 202 197 193 192 191 187 181 172 162 156 152 147 142 139 139 143
323 323 325 326 324 321 321 322 324 326 328 328 328 327 326 322 316 311 308 307 304 302 298 292 289 285 272 256 246 240 234 229 223 218 220 225 223 214 209 205 199 196 198 200 202 202 198 194 191 189 187 184 179 174 166 158 154 150 143 137 136 137 143